2018-014G

Last updated on Fri Nov 16 2018 00:08:36 GMT+0000 (Coordinated Universal Time)

1 43186U 18014G 18319.53644892 .00000084 00000-0 12489-4 0 9999 2 43186 97.7160 225.9823 0011349 12.3864 347.7634 14.96531505 42950
UTC large
Height (km)
Speed (km/s)
/
Latitude / Longitude
Inclination (degrees)
Orbital Period (minutes)
Azimuth
Elevation
Range (km)
Doppler Factor

Next 0 passes for location: London (51.5072 / 0.1276)

Sorry there are no passes over London.